Time,TemperatureF,DewpointF,PressureIn,WindDirection,WindDirectionDegrees,WindSpeedMPH,WindSpeedGustMPH,Humidity,HourlyPrecipIn,Conditions,Clouds,dailyrainin,SoftwareType,DateUTC
2013-03-01 00:05:00,38.7,38.1,29.55,West,270,0.0,-999.0,98,-99.99,,,0.00,Acu-Link.com,2013-03-01 05:05:00,
2013-03-01 00:20:00,38.3,37.8,29.55,WNW,292,0.0,-999.0,98,-99.99,,,0.00,Acu-Link.com,2013-03-01 05:20:00,
2013-03-01 00:35:00,37.6,37.1,29.55,SE,135,0.0,-999.0,98,-99.99,,,0.00,Acu-Link.com,2013-03-01 05:35:00,
2013-03-01 00:51:00,37.0,36.5,29.55,SW,225,0.0,-999.0,98,-99.99,,,0.00,Acu-Link.com,2013-03-01 05:51:00,
2013-03-01 01:06:00,36.0,35.5,29.55,SW,225,0.0,-999.0,98,-99.99,,,0.00,Acu-Link.com,2013-03-01 06:06:00,
2013-03-01 01:21:00,34.9,34.4,29.55,WSW,247,0.0,-999.0,98,-99.99,,,0.00,Acu-Link.com,2013-03-01 06:21:00,
2013-03-01 01:36:00,33.8,33.3,29.55,SW,225,0.0,-999.0,98,-99.99,,,0.00,Acu-Link.com,2013-03-01 06:36:00,
2013-03-01 01:52:00,33.1,32.6,29.55,SSW,202,0.0,-999.0,98,-99.99,,,0.00,Acu-Link.com,2013-03-01 06:52:00,
2013-03-01 02:07:00,32.7,32.2,29.55,SSW,202,0.0,-999.0,98,-99.99,,,0.00,Acu-Link.com,2013-03-01 07:07:00,
2013-03-01 02:22:00,32.5,32.0,29.55,SSW,202,0.0,-999.0,98,-99.99,,,0.00,Acu-Link.com,2013-03-01 07:22:00,
2013-03-01 02:37:00,32.4,31.9,29.55,SSW,202,0.0,-999.0,98,-99.99,,,0.00,Acu-Link.com,2013-03-01 07:37:00,
2013-03-01 02:52:00,32.0,31.5,29.56,SSW,202,0.0,-999.0,98,-99.99,,,0.00,Acu-Link.com,2013-03-01 07:52:00,
2013-03-01 03:08:00,31.8,31.3,29.56,SSW,202,0.0,-999.0,98,-99.99,,,0.00,Acu-Link.com,2013-03-01 08:08:00,
2013-03-01 03:23:00,31.6,31.1,29.56,SSW,202,0.0,-999.0,98,-99.99,,,0.00,Acu-Link.com,2013-03-01 08:23:00,
2013-03-01 03:38:00,32.9,32.4,29.56,SSW,202,0.0,-999.0,98,-99.99,,,0.00,Acu-Link.com,2013-03-01 08:38:00,
2013-03-01 03:53:00,33.3,32.8,29.57,SW,225,0.0,-999.0,98,-99.99,,,0.00,Acu-Link.com,2013-03-01 08:53:00,
2013-03-01 04:19:00,33.3,32.8,29.57,SW,225,0.0,-999.0,98,-99.99,,,0.00,Acu-Link.com,2013-03-01 09:19:00,
2013-03-01 04:34:00,32.9,32.4,29.58,SSW,202,0.0,-999.0,98,-99.99,,,0.00,Acu-Link.com,2013-03-01 09:34:00,
2013-03-01 04:49:00,33.6,33.1,29.58,NNW,337,2.2,-999.0,98,-99.99,,,0.00,Acu-Link.com,2013-03-01 09:49:00,
2013-03-01 05:05:00,34.0,33.5,29.58,WNW,292,0.0,-999.0,98,-99.99,,,0.00,Acu-Link.com,2013-03-01 10:05:00,
2013-03-01 05:20:00,33.4,32.9,29.58,ESE,112,0.0,-999.0,98,-99.99,,,0.00,Acu-Link.com,2013-03-01 10:20:00,
2013-03-01 05:35:00,33.4,32.9,29.59,SW,225,0.0,-999.0,98,-99.99,,,0.00,Acu-Link.com,2013-03-01 10:35:00,
2013-03-01 05:50:00,33.1,32.6,29.58,SW,225,0.0,-999.0,98,-99.99,,,0.00,Acu-Link.com,2013-03-01 10:50:00,
2013-03-01 06:05:00,32.4,31.9,29.59,SSW,202,0.0,-999.0,98,-99.99,,,0.00,Acu-Link.com,2013-03-01 11:05:00,
2013-03-01 06:20:00,32.2,31.7,29.59,SSW,202,0.0,-999.0,98,-99.99,,,0.00,Acu-Link.com,2013-03-01 11:20:00,
2013-03-01 06:36:00,32.0,31.5,29.60,SSW,202,0.0,-999.0,98,-99.99,,,0.00,Acu-Link.com,2013-03-01 11:36:00,
2013-03-01 06:51:00,32.0,31.5,29.60,SW,225,0.0,-999.0,98,-99.99,,,0.00,Acu-Link.com,2013-03-01 11:51:00,
2013-03-01 07:06:00,32.0,31.5,29.61,West,270,0.0,-999.0,98,-99.99,,,0.00,Acu-Link.com,2013-03-01 12:06:00,
2013-03-01 07:21:00,32.9,32.4,29.61,SSE,157,0.0,-999.0,98,-99.99,,,0.00,Acu-Link.com,2013-03-01 12:21:00,
2013-03-01 07:37:00,34.0,33.5,29.61,SW,225,0.0,-999.0,98,-99.99,,,0.00,Acu-Link.com,2013-03-01 12:37:00,
2013-03-01 07:52:00,37.2,36.7,29.62,WSW,247,0.0,-999.0,98,-99.99,,,0.00,Acu-Link.com,2013-03-01 12:52:00,
2013-03-01 08:07:00,37.8,37.2,29.62,ESE,112,0.0,-999.0,98,-99.99,,,0.00,Acu-Link.com,2013-03-01 13:07:00,
2013-03-01 08:22:00,40.1,39.6,29.62,SSE,157,1.6,-999.0,98,-99.99,,,0.00,Acu-Link.com,2013-03-01 13:22:00,
2013-03-01 08:37:00,40.6,40.1,29.63,WSW,247,0.0,-999.0,98,-99.99,,,0.00,Acu-Link.com,2013-03-01 13:37:00,
2013-03-01 08:53:00,41.0,40.5,29.63,South,180,2.7,-999.0,98,-99.99,,,0.00,Acu-Link.com,2013-03-01 13:53:00,
2013-03-01 09:08:00,41.0,40.5,29.63,West,270,1.6,-999.0,98,-99.99,,,0.00,Acu-Link.com,2013-03-01 14:08:00,
2013-03-01 09:23:00,41.2,39.3,29.63,West,270,4.3,-999.0,93,-99.99,,,0.00,Acu-Link.com,2013-03-01 14:23:00,
2013-03-01 09:38:00,41.5,38.8,29.63,ENE,67,3.8,-999.0,90,-99.99,,,0.00,Acu-Link.com,2013-03-01 14:38:00,
2013-03-01 09:53:00,41.5,38.8,29.63,North,0,4.3,-999.0,90,-99.99,,,0.00,Acu-Link.com,2013-03-01 14:53:00,
2013-03-01 10:09:00,41.5,38.8,29.63,ESE,112,1.1,-999.0,90,-99.99,,,0.00,Acu-Link.com,2013-03-01 15:09:00,
2013-03-01 10:24:00,41.7,38.7,29.64,ESE,112,0.0,-999.0,89,-99.99,,,0.00,Acu-Link.com,2013-03-01 15:24:00,
2013-03-01 10:39:00,41.7,38.1,29.64,SSW,202,0.0,-999.0,87,-99.99,,,0.00,Acu-Link.com,2013-03-01 15:39:00,
2013-03-01 10:54:00,41.9,38.0,29.64,NE,45,0.0,-999.0,86,-99.99,,,0.00,Acu-Link.com,2013-03-01 15:54:00,
2013-03-01 11:10:00,42.6,37.8,29.64,WNW,292,0.0,-999.0,83,-99.99,,,0.00,Acu-Link.com,2013-03-01 16:10:00,
2013-03-01 11:25:00,43.3,37.9,29.64,ESE,112,0.0,-999.0,81,-99.99,,,0.00,Acu-Link.com,2013-03-01 16:25:00,
2013-03-01 11:40:00,43.5,37.1,29.64,SW,225,4.7,-999.0,78,-99.99,,,0.00,Acu-Link.com,2013-03-01 16:40:00,
2013-03-01 11:55:00,44.1,37.3,29.64,NW,315,0.0,-999.0,77,-99.99,,,0.00,Acu-Link.com,2013-03-01 16:55:00,
2013-03-01 12:10:00,44.2,36.8,29.64,SSE,157,2.2,-999.0,75,-99.99,,,0.00,Acu-Link.com,2013-03-01 17:10:00,
2013-03-01 12:26:00,44.8,37.0,29.63,SSE,157,1.1,-999.0,74,-99.99,,,0.00,Acu-Link.com,2013-03-01 17:26:00,
2013-03-01 12:41:00,44.8,36.7,29.63,West,270,0.0,-999.0,73,-99.99,,,0.00,Acu-Link.com,2013-03-01 17:41:00,
2013-03-01 12:56:00,45.1,37.0,29.63,SSW,202,0.0,-999.0,73,-99.99,,,0.00,Acu-Link.com,2013-03-01 17:56:00,
2013-03-01 13:11:00,45.7,35.7,29.62,West,270,3.8,-999.0,68,-99.99,,,0.00,Acu-Link.com,2013-03-01 18:11:00,
2013-03-01 13:26:00,44.8,35.2,29.62,WNW,292,7.8,-999.0,69,-99.99,,,0.00,Acu-Link.com,2013-03-01 18:26:00,
2013-03-01 13:42:00,43.9,35.4,29.62,West,270,2.7,-999.0,72,-99.99,,,0.00,Acu-Link.com,2013-03-01 18:42:00,
2013-03-01 13:57:00,43.5,36.1,29.62,ESE,112,3.1,-999.0,75,-99.99,,,0.00,Acu-Link.com,2013-03-01 18:57:00,
2013-03-01 14:12:00,43.2,36.1,29.62,SSE,157,0.0,-999.0,76,-99.99,,,0.00,Acu-Link.com,2013-03-01 19:12:00,
2013-03-01 14:27:00,43.0,35.6,29.62,North,0,2.7,-999.0,75,-99.99,,,0.00,Acu-Link.com,2013-03-01 19:27:00,
2013-03-01 14:43:00,43.2,35.4,29.63,SSW,202,2.7,-999.0,74,-99.99,,,0.00,Acu-Link.com,2013-03-01 19:43:00,
2013-03-01 14:58:00,43.3,35.3,29.63,NW,315,3.8,-999.0,73,-99.99,,,0.00,Acu-Link.com,2013-03-01 19:58:00,
2013-03-01 15:13:00,43.2,35.1,29.63,West,270,3.8,-999.0,73,-99.99,,,0.00,Acu-Link.com,2013-03-01 20:13:00,
2013-03-01 15:28:00,43.3,35.3,29.63,West,270,2.7,-999.0,73,-99.99,,,0.00,Acu-Link.com,2013-03-01 20:28:00,
2013-03-01 15:43:00,43.5,34.8,29.63,WSW,247,2.2,-999.0,71,-99.99,,,0.00,Acu-Link.com,2013-03-01 20:43:00,
2013-03-01 15:59:00,43.3,34.6,29.63,ESE,112,2.7,-999.0,71,-99.99,,,0.00,Acu-Link.com,2013-03-01 20:59:00,
2013-03-01 16:14:00,43.2,34.4,29.63,West,270,1.6,-999.0,71,-99.99,,,0.00,Acu-Link.com,2013-03-01 21:14:00,
2013-03-01 16:29:00,42.8,35.1,29.64,SE,135,3.8,-999.0,74,-99.99,,,0.00,Acu-Link.com,2013-03-01 21:29:00,
2013-03-01 16:44:00,42.4,35.7,29.64,ESE,112,0.0,-999.0,77,-99.99,,,0.00,Acu-Link.com,2013-03-01 21:44:00,
2013-03-01 16:59:00,42.1,35.7,29.65,SSE,157,1.1,-999.0,78,-99.99,,,0.00,Acu-Link.com,2013-03-01 21:59:00,
2013-03-01 17:14:00,41.7,35.4,29.65,NE,45,2.7,-999.0,78,-99.99,,,0.00,Acu-Link.com,2013-03-01 22:14:00,
2013-03-01 17:30:00,41.7,35.4,29.66,NE,45,1.1,-999.0,78,-99.99,,,0.00,Acu-Link.com,2013-03-01 22:30:00,
2013-03-01 17:45:00,41.5,35.5,29.66,WNW,292,5.8,-999.0,79,-99.99,,,0.00,Acu-Link.com,2013-03-01 22:45:00,
2013-03-01 18:00:00,40.8,37.3,29.67,West,270,5.1,-999.0,87,-99.99,,,0.00,Acu-Link.com,2013-03-01 23:00:00,
2013-03-01 18:15:00,40.3,37.3,29.67,SW,225,1.6,-999.0,89,-99.99,,,0.00,Acu-Link.com,2013-03-01 23:15:00,
2013-03-01 18:31:00,40.1,37.4,29.69,SW,225,3.1,-999.0,90,-99.99,,,0.00,Acu-Link.com,2013-03-01 23:31:00,
2013-03-01 18:46:00,39.9,37.2,29.68,WNW,292,5.1,-999.0,90,-99.99,,,0.00,Acu-Link.com,2013-03-01 23:46:00,
2013-03-01 19:01:00,39.7,37.1,29.69,WNW,292,0.0,-999.0,90,-99.99,,,0.00,Acu-Link.com,2013-03-02 00:01:00,
2013-03-01 19:16:00,39.7,36.5,29.70,West,270,3.1,-999.0,88,-99.99,,,0.00,Acu-Link.com,2013-03-02 00:16:00,
2013-03-01 19:31:00,39.6,36.3,29.70,South,180,4.3,-999.0,88,-99.99,,,0.00,Acu-Link.com,2013-03-02 00:31:00,
2013-03-01 19:46:00,39.6,36.0,29.70,SSE,157,0.0,-999.0,87,-99.99,,,0.00,Acu-Link.com,2013-03-02 00:46:00,
2013-03-01 20:02:00,39.4,35.8,29.70,West,270,8.9,-999.0,87,-99.99,,,0.00,Acu-Link.com,2013-03-02 01:02:00,
2013-03-01 20:17:00,39.0,35.2,29.70,NW,315,5.8,-999.0,86,-99.99,,,0.00,Acu-Link.com,2013-03-02 01:17:00,
2013-03-01 20:32:00,39.0,35.5,29.70,SW,225,0.0,-999.0,87,-99.99,,,0.00,Acu-Link.com,2013-03-02 01:32:00,
2013-03-01 20:47:00,38.8,35.3,29.71,ESE,112,4.3,-999.0,87,-99.99,,,0.00,Acu-Link.com,2013-03-02 01:47:00,
2013-03-01 21:03:00,38.7,34.8,29.71,ESE,112,0.0,-999.0,86,-99.99,,,0.00,Acu-Link.com,2013-03-02 02:03:00,
2013-03-01 21:18:00,38.5,35.0,29.71,South,180,1.6,-999.0,87,-99.99,,,0.00,Acu-Link.com,2013-03-02 02:18:00,
2013-03-01 21:33:00,38.1,34.0,29.71,West,270,4.3,-999.0,85,-99.99,,,0.00,Acu-Link.com,2013-03-02 02:33:00,
2013-03-01 21:48:00,38.1,33.7,29.71,WNW,292,1.1,-999.0,84,-99.99,,,0.00,Acu-Link.com,2013-03-02 02:48:00,
2013-03-01 22:03:00,37.9,33.2,29.72,South,180,0.0,-999.0,83,-99.99,,,0.00,Acu-Link.com,2013-03-02 03:03:00,
2013-03-01 22:19:00,37.6,33.8,29.72,NW,315,5.8,-999.0,86,-99.99,,,0.00,Acu-Link.com,2013-03-02 03:19:00,
2013-03-01 22:34:00,37.4,33.6,29.72,WSW,247,0.0,-999.0,86,-99.99,,,0.00,Acu-Link.com,2013-03-02 03:34:00,
2013-03-01 22:49:00,37.2,33.4,29.72,West,270,4.7,-999.0,86,-99.99,,,0.00,Acu-Link.com,2013-03-02 03:49:00,
2013-03-01 23:04:00,36.9,31.9,29.73,SE,135,2.2,-999.0,82,-99.99,,,0.00,Acu-Link.com,2013-03-02 04:04:00,
2013-03-01 23:20:00,36.9,31.9,29.72,WNW,292,2.2,-999.0,82,-99.99,,,0.00,Acu-Link.com,2013-03-02 04:20:00,
2013-03-01 23:35:00,36.7,31.7,29.72,SSW,202,3.8,-999.0,82,-99.99,,,0.00,Acu-Link.com,2013-03-02 04:35:00,
2013-03-01 23:50:00,36.5,30.9,29.72,East,90,2.7,-999.0,80,-99.99,,,0.00,Acu-Link.com,2013-03-02 04:50:00,